RH
36 97 100 93 100 99 91 100 100 100 100 100 98 100 100 100 100 100 100 91 86 83 82 85 87 85 96 100 100 100 100 100 100 100 100 100 92 90 77 81 86 80 81
18 32 82 89 96 98 100 100 100 100 100 100 100 100 100 100 100 100 100 100 100 100 100 100 100 97 100 100 100 99 100 100 100 100 97 100 94 78 92 93 83 90 86
18 19 41 80 100 100 100 100 100 100 100 100 100 100 100 100 100 100 100 100 100 100 100 100 100 100 99 99 100 100 100 100 93 95 100 92 96 100 100 100 100 98 86
19 19 25 64 87 93 100 100 100 100 100 94 100 81 96 91 90 94 98 100 100 100 100 100 100 100 100 100 100 100 90 98 100 99 97 98 100 100 100 100 100 100 95
21 20 20 29 42 33 52 91 97 100 100 100 100 88 96 90 97 100 100 100 100 100 100 100 100 100 100 100 99 100 100 100 97 100 100 100 100 100 100 100 100 100 98
23 22 21 21 20 21 25 64 100 100 100 100 100 100 100 92 94 99 100 100 100 100 100 100 100 100 100 100 100 100 100 100 100 100 100 100 100 100 100 100 100 100 100
22 21 21 21 22 23 32 44 66 91 98 100 100 100 100 100 100 100 100 100 100 100 100 100 100 100 100 100 99 100 100 100 100 100 100 100 100 100 100 100 100 100 100
19 20 20 22 22 23 29 33 40 57 92 100 100 100 100 96 95 92 88 92 98 100 100 100 100 100 100 100 100 100 100 100 100 100 100 100 100 100 100 100 100 100 100
20 20 22 21 20 21 22 24 30 36 46 74 100 100 100 100 100 100 100 100 100 100 100 100 100 100 100 100 100 100 100 100 100 100 100 100 100 100 100 100 96 99 93
24 23 21 21 19 19 21 22 22 24 30 47 74 92 100 100 100 97 94 96 100 100 100 100 100 100 100 100 100 100 100 100 100 100 100 100 100 100 100 100 98 94 92
26 27 26 23 21 21 18 17 19 21 23 30 49 69 78 91 100 100 100 100 100 100 100 100 100 100 100 100 100 100 100 100 100 100 100 100 100 100 100 95 86 84 75
25 26 27 26 25 22 19 18 19 21 23 25 30 37 44 64 87 100 100 100 100 100 100 100 100 100 100 100 100 100 100 100 100 100 100 96 97 100 95 89 87 77 73
28 28 27 27 29 29 25 21 18 18 18 21 25 32 37 46 58 72 87 97 100 100 100 100 100 100 100 100 100 100 100 97 100 96 82 94 97 88 88 77 81 76 63
26 28 31 32 32 32 29 29 24 21 19 18 19 20 20 25 32 41 46 52 68 89 100 100 100 99 98 95 86 92 84 73 74 74 83 87 87 87 79 76 75 65 74
24 24 25 27 28 29 30 31 29 25 22 21 19 18 19 19 25 29 42 52 60 59 66 77 74 85 73 69 70 58 62 77 77 68 76 80 82 82 76 69 64 76 64
27 22 20 21 22 24 25 25 25 25 25 22 22 23 23 26 25 30 32 28 28 28 33 36 45 40 45 46 44 52 71 65 55 73 73 68 77 73 68 69 87 72 83
24 24 25 26 25 25 28 28 28 27 26 26 26 28 28 29 31 34 35 39 40 40 37 31 28 30 38 47 57 63 67 63 55 64 80 75 74 66 72 91 82 82 84
25 26 28 33 32 30 28 28 28 27 27 24 23 24 23 25 28 26 26 29 38 39 34 33 31 38 40 51 55 59 44 47 48 68 65 70 78 87 90 78 91 87 73
32 34 37 35 32 30 31 30 26 22 22 22 22 22 25 25 24 24 25 27 27 28 27 29 33 32 36 36 35 38 39 51 50 70 73 70 81 85 93 88 85 74 71
20 20 21 22 24 25 26 26 26 26 24 24 23 23 25 25 27 28 28 30 28 28 28 28 31 30 30 31 33 40 53 58 73 86 94 89 97 84 72 74 71 76 63
30 33 32 33 31 29 28 25 22 21 22 22 22 24 25 30 29 35 34 33 32 35 35 33 35 38 38 46 50 58 66 83 95 99 97 85 80 74 73 76 66 67 87
32 42 47 49 49 51 46 38 35 33 32 28 27 29 31 34 40 43 42 38 42 44 44 50 46 43 49 64 71 70 98 100 94 94 76 77 77 76 70 62 69 86 91
38 41 50 57 62 66 66 67 53 46 41 41 41 41 42 41 43 44 45 47 52 53 51 52 68 79 100 94 98 90 100 98 85 88 85 76 70 64 62 69 78 80 84
52 46 46 52 61 68 68 73 75 73 76 74 66 68 62 57 54 52 54 55 55 59 60 78 76 83 82 96 90 99 93 97 99 86 74 70 74 80 87 92 87 80 80
58 58 61 53 50 56 64 69 73 76 84 86 89 87 83 77 71 66 62 61 59 64 69 74 78 81 85 86 96 100 100 96 88 80 78 88 96 100 98 90 94 97 100
43 49 58 63 60 52 59 66 74 79 84 88 88 90 89 89 84 80 78 77 78 76 76 81 89 94 98 100 100 100 91 96 92 85 86 94 98 100 100 100 99 97 94
Wind_Speed
93 96 96 95 91 87 82 75 70 65 64 68 68 67 68 69 69 68 66 66 66 66 67 66 65 65 67 66 66 66 65 69 73 74 75 76 80 83 85 84 87 89 89
91 94 97 96 95 91 87 86 78 73 66 64 62 68 71 69 70 70 68 69 69 69 71 71 70 69 71 68 66 68 71 73 76 71 76 79 86 86 85 88 91 89 91
93 93 95 97 96 96 94 92 88 81 73 62 58 60 68 74 71 70 72 73 71 71 70 70 69 64 64 68 72 73 72 70 75 80 82 84 83 84 86 90 91 93 95
95 93 94 95 97 98 99 95 90 87 80 75 75 70 71 74 74 74 74 74 71 71 71 71 70 69 73 74 72 72 77 77 79 85 85 84 85 85 84 88 92 96 98
95 95 93 96 98 98 99 100 98 95 91 89 83 75 71 71 72 73 73 74 73 73 74 74 74 74 73 75 77 78 79 82 83 83 85 86 87 86 86 89 92 98 103
93 96 96 94 94 96 98 102 104 102 99 95 94 94 88 83 81 79 75 73 72 73 73 75 77 78 79 80 81 82 82 83 84 86 86 84 86 89 92 94 97 99 102
91 90 92 94 94 95 99 102 105 107 106 104 101 98 97 95 94 92 89 88 88 86 84 84 84 85 86 86 86 85 85 85 86 87 87 87 91 94 97 99 101 104 106
89 89 91 93 95 96 98 99 101 105 110 110 107 104 102 100 98 98 96 95 93 92 91 89 87 87 88 88 87 87 87 87 88 88 90 92 96 97 99 101 104 107 110
87 88 91 93 94 95 97 100 103 104 105 109 112 110 107 104 101 100 98 98 97 96 94 93 91 89 89 89 89 88 89 91 92 94 96 98 100 102 102 106 110 111 113
86 87 92 95 95 96 99 100 103 105 106 106 109 110 112 110 107 104 102 101 100 99 97 96 95 94 94 94 93 94 95 96 98 99 101 103 105 104 106 109 111 110 107
90 91 92 94 96 99 100 100 101 101 103 106 108 109 111 111 111 109 106 102 101 101 99 99 98 97 98 97 98 99 100 101 101 103 106 108 108 109 108 108 109 109 103
88 92 93 95 97 100 101 100 100 102 103 104 105 107 108 110 111 112 112 107 105 103 103 102 102 101 101 101 100 102 104 103 104 106 107 109 107 102 103 106 105 99 99
81 87 92 94 95 97 99 99 98 99 100 102 103 104 105 105 108 107 107 110 113 112 108 106 106 107 105 106 107 106 103 103 106 107 108 101 99 102 100 96 94 92 89
79 84 88 90 92 95 96 96 95 94 94 94 97 99 100 100 100 100 101 103 104 105 107 109 110 106 104 105 103 103 104 102 101 100 98 98 99 95 93 92 88 86 84
77 80 84 87 89 91 93 94 93 92 91 90 89 88 88 89 93 92 91 95 97 98 98 101 100 103 102 100 99 100 95 93 94 96 95 97 93 95 91 84 82 81 77
76 79 80 83 84 86 88 87 87 87 86 84 83 82 82 84 82 84 88 87 89 90 92 95 95 92 90 92 91 94 92 89 89 91 89 88 91 87 81 80 78 77 80
72 73 75 77 78 79 79 82 82 82 82 83 83 82 80 81 82 83 83 85 84 84 83 82 82 83 87 87 85 86 86 88 87 85 83 82 80 76 77 74 75 79 84
67 69 70 73 74 74 75 76 78 78 77 78 76 74 74 76 78 78 78 78 78 79 79 80 81 79 79 79 81 84 82 80 78 78 76 74 72 71 70 74 78 83 75
57 59 63 68 69 70 71 72 72 72 72 71 71 69 70 72 73 72 71 70 71 70 71 69 72 73 74 73 75 74 74 73 70 69 68 65 65 70 73 78 77 70 67
48 48 50 53 55 58 62 65 68 70 70 68 66 65 64 63 62 63 63 63 64 64 64 64 65 66 67 67 67 66 65 65 62 60 64 67 71 74 73 67 65 62 63
39 40 41 40 42 45 46 50 54 57 60 62 62 62 61 61 57 56 57 57 56 58 60 60 59 60 60 59 57 56 53 55 61 64 68 71 70 62 61 60 59 58 57
36 34 34 35 36 35 37 38 41 44 46 48 50 52 53 58 59 57 57 57 57 57 56 56 57 56 55 53 52 51 55 60 63 68 64 58 57 57 57 54 53 50 48
38 37 36 35 35 35 34 33 34 35 37 40 42 43 46 49 52 55 56 56 55 56 57 55 54 50 53 56 55 57 60 64 54 53 54 52 53 51 50 48 46 46 46
38 39 39 38 37 37 37 37 35 32 31 32 33 36 39 41 44 47 50 52 53 53 54 55 54 55 55 57 56 59 50 49 50 49 48 46 45 44 44 44 45 47 50
39 38 38 39 40 38 38 39 38 37 35 33 34 34 36 38 40 42 44 46 48 49 50 50 51 51 51 50 46 46 47 47 46 45 43 41 42 43 44 46 49 52 54
35 37 38 38 38 38 37 39 39 38 38 38 39 38 37 39 40 41 42 42 43 44 44 43 41 41 41 41 44 47 47 45 43 43 43 42 42 44 47 50 53 55 56
Wind_Direction
227 229 230 231 231 233 231 230 234 237 241 245 245 246 251 252 253 254 254 256 259 261 264 266 268 271 274 278 281 285 286 288 290 294 298 297 298 301 303 304 304 306 307
226 228 229 231 232 231 232 232 232 235 238 239 247 250 248 250 253 255 257 258 259 262 266 268 270 272 275 278 281 283 285 288 291 292 293 296 299 301 303 302 304 305 307
226 229 228 230 231 232 232 234 234 236 238 233 240 243 246 248 249 252 255 258 260 263 267 270 272 272 276 279 281 283 284 287 287 291 293 297 299 300 301 301 303 304 305
227 229 229 230 230 231 232 233 235 238 235 236 237 237 241 245 248 251 252 254 258 261 264 268 269 273 275 280 281 281 283 287 287 291 295 295 296 297 299 299 302 302 303
228 229 230 230 232 233 233 233 235 235 238 238 237 239 243 245 249 252 254 256 259 261 263 267 269 271 274 276 279 280 283 286 291 291 294 294 295 296 297 298 299 301 303
230 230 231 232 234 236 236 234 235 237 237 240 240 244 245 247 250 252 254 255 259 263 265 265 267 271 273 275 278 281 285 287 288 290 291 292 293 295 296 297 300 302 303
231 233 233 234 234 236 236 236 236 237 239 241 242 243 245 247 249 252 254 257 259 262 263 264 267 271 274 276 278 280 283 285 286 288 289 290 292 294 296 298 299 301 303
230 232 233 234 234 235 237 239 240 240 239 241 243 245 247 248 249 251 253 255 257 259 262 265 269 272 273 276 277 280 281 282 284 285 287 289 291 293 295 297 298 299 301
231 231 234 236 236 236 237 239 240 241 242 243 243 245 247 249 251 252 254 257 259 261 263 265 268 271 272 274 275 278 279 281 283 285 286 288 290 293 293 295 297 299 301
232 234 235 236 238 238 238 239 240 241 243 244 245 246 248 249 251 253 255 257 259 261 263 265 267 269 271 273 275 277 280 282 284 285 285 287 289 291 292 294 296 299 300
234 236 237 238 239 240 241 241 242 242 243 244 245 247 248 250 251 253 254 257 259 260 263 264 266 269 271 274 276 278 281 282 284 285 286 287 289 291 293 293 296 297 300
235 236 237 239 240 242 244 243 243 244 244 245 246 247 248 250 252 253 254 256 258 260 262 265 266 268 271 274 277 278 279 281 282 286 286 289 290 290 292 293 295 298 299
235 237 239 240 242 244 247 247 247 245 246 247 247 248 250 252 253 254 256 256 257 258 262 264 266 269 272 272 275 277 279 281 281 284 285 287 288 289 291 294 296 296 297
236 236 238 242 244 245 248 250 251 251 251 249 249 250 251 252 253 254 256 258 259 261 262 263 265 268 270 273 276 276 278 279 280 282 282 285 286 289 292 294 294 295 295
239 239 240 240 242 245 246 249 252 253 254 255 255 254 255 254 254 256 258 259 259 262 263 265 266 268 269 272 274 275 277 277 277 281 282 284 288 288 293 292 292 293 295
242 244 245 245 245 247 249 252 254 256 257 258 258 258 259 260 260 262 265 264 263 263 263 264 265 267 268 269 271 272 272 277 279 281 284 284 285 290 290 290 290 290 294
246 247 249 251 251 252 253 254 255 255 256 256 257 257 259 260 261 261 262 263 264 264 263 263 263 263 265 265 268 272 274 277 279 282 284 285 287 287 287 287 290 293 296
252 254 254 254 254 254 253 253 255 256 257 257 257 258 259 259 260 260 261 261 262 262 263 263 265 266 264 266 268 271 274 277 279 281 284 285 285 284 285 286 291 294 295
255 253 252 252 254 255 256 258 259 258 258 258 259 258 259 260 259 258 258 259 259 261 263 263 265 265 266 267 269 272 276 277 279 280 281 281 285 286 286 288 291 292 294
251 250 248 251 252 254 255 255 256 258 259 260 260 258 257 257 257 257 258 258 258 259 260 262 262 264 267 269 270 271 275 277 276 274 278 281 284 286 289 290 291 292 292
244 246 247 248 249 250 251 252 255 257 258 259 259 258 256 255 255 258 257 257 258 259 260 262 265 266 267 269 270 271 270 274 275 276 280 283 287 288 288 288 291 292 292
242 244 245 246 248 250 251 251 251 253 256 257 257 256 256 254 255 257 258 257 258 261 263 263 265 266 267 267 269 272 271 274 278 280 282 284 287 286 287 287 290 292 295
244 242 241 243 245 247 249 251 251 251 252 253 254 254 253 253 254 256 257 259 260 260 261 262 263 262 261 266 272 273 275 278 278 280 284 286 286 285 285 287 291 293 293
248 247 245 244 244 246 245 245 249 248 249 250 251 252 251 251 251 252 253 254 254 256 257 258 261 260 260 263 268 273 272 273 278 282 285 286 286 286 288 288 290 293 295
252 251 250 248 246 246 246 246 246 248 248 248 249 250 251 251 251 252 253 254 255 254 254 255 257 260 263 265 266 266 270 275 280 283 288 289 287 286 286 290 293 295 296
253 249 249 250 251 248 249 248 248 247 246 248 249 250 250 252 251 251 253 254 254 256 256 258 258 258 258 258 263 267 272 275 280 286 289 288 289 288 288 288 290 293 295